Вернуться в каталог

OPS 7613

P/L 5

АктивенВоенныеLEO
NORAD 4247·PAYLOAD·🇺🇸 United States

Запущен Sep 30, 1969 с Vandenberg Space Force Base

Loading…

Ближайшие Пролёты (ближайшие 24 часа)

TLE

СвежийSource: Space-Track

Эпоха: Sep 14, 2026, 11:48 UTC

1 04247U 69082F   26257.49172182  .00000008  00000-0  44023-4 0  9993
2 04247  70.0124 271.6908 0020160   4.4997 355.6286 13.96004268898872

Отслеживайте OPS 7613 в реальном времени с AllMySat

Download on the App Store